Wind_Speed
19 18 15 14 15 14 15 16 15 12 13 15 15 16 14 13 12 12 11 12 13 12 13 13 13 12 12 12 12 13 13 14 14 14 14 14 14 14 14 14 14 14 14 14
18 17 14 14 15 15 15 16 15 14 15 16 17 16 15 14 12 11 11 12 13 13 14 14 14 14 13 13 13 13 14 14 15 15 15 14 14 15 14 15 15 14 14 14
17 15 16 16 16 16 16 16 16 16 15 16 16 16 14 14 13 13 12 13 12 12 14 15 15 14 13 14 14 14 15 15 15 15 15 14 14 14 14 15 15 14 14 14
15 14 16 17 17 17 17 16 17 16 16 16 17 17 13 14 13 13 13 14 13 14 15 15 16 16 15 14 14 15 15 15 15 15 14 14 14 14 14 15 14 15 15 14
12 13 15 16 15 16 15 15 17 17 17 17 17 19 14 12 11 12 13 15 15 15 15 15 16 16 16 15 16 15 14 14 14 14 14 14 14 15 15 15 15 15 15 15
13 13 15 14 15 15 14 15 17 18 19 19 16 18 16 14 12 12 14 15 15 16 15 15 15 16 15 16 16 16 15 15 15 15 14 14 15 16 16 15 15 15 15 16
13 14 13 13 15 15 16 17 18 18 19 19 17 19 18 15 15 16 16 16 16 16 15 15 16 15 15 15 16 16 16 15 15 15 15 15 15 16 16 16 15 15 15 15
14 13 14 15 16 16 17 18 19 19 19 18 17 19 17 17 16 17 16 16 17 16 16 17 16 17 16 15 16 16 16 16 16 15 15 15 15 15 15 15 14 14 15 15
16 14 15 16 16 17 18 19 18 19 20 20 19 18 18 18 17 17 17 17 16 15 15 16 17 16 16 16 16 16 16 16 16 15 15 15 15 15 14 14 14 15 15 15
17 16 17 17 17 17 18 17 18 18 20 20 20 19 17 17 17 18 18 18 17 16 16 17 16 16 16 15 15 16 16 16 16 16 16 16 16 15 15 15 15 15 15 15
20 19 19 19 18 18 18 19 19 21 22 23 22 20 18 18 18 19 19 18 18 17 17 17 16 17 17 16 16 16 16 16 17 16 16 16 16 15 15 15 15 16 16 16
21 21 20 21 20 19 20 20 21 22 23 23 23 22 19 18 19 19 19 18 18 19 18 17 16 16 16 16 16 16 15 15 16 16 15 14 15 15 15 16 16 16 16 16
23 23 22 22 23 22 22 23 24 24 24 23 24 23 21 19 19 20 20 19 19 18 17 16 16 16 16 15 16 16 16 15 15 15 15 14 15 15 16 16 16 17 17 17
25 25 25 24 23 24 24 24 24 25 25 24 23 23 22 21 21 21 20 20 19 16 16 16 16 15 14 14 15 15 15 15 15 15 15 15 15 16 16 16 17 17 17 17
26 26 26 25 25 25 26 25 24 25 25 24 23 23 22 22 21 22 21 18 17 15 16 17 16 15 15 16 16 15 15 15 15 15 15 15 15 15 16 17 17 17 17 17
27 27 26 26 26 26 26 25 25 25 25 25 25 24 22 23 20 19 19 18 16 16 16 17 17 16 16 16 16 15 15 15 15 15 15 15 15 16 17 17 17 18 18 18
29 29 28 27 27 28 28 26 26 25 24 23 25 24 21 21 20 20 19 17 17 16 17 16 16 16 16 16 16 16 16 15 15 15 16 16 16 17 18 18 18 19 19 20
29 29 29 29 29 30 26 25 25 24 22 22 23 23 21 19 19 19 20 19 19 18 17 17 17 17 18 18 17 16 16 16 16 16 16 16 16 17 18 18 19 20 20 21
29 28 30 30 30 29 27 25 22 21 21 22 21 20 20 18 19 19 19 19 19 19 18 17 18 19 19 18 17 18 17 17 17 18 16 16 17 18 18 18 19 20 20 20
28 29 29 29 29 28 26 24 22 22 23 22 21 20 19 19 19 18 18 18 19 19 18 18 19 19 19 19 18 18 19 18 18 17 17 18 19 19 19 19 19 20 20 20
27 27 28 28 28 27 25 24 23 23 23 22 21 21 21 21 20 19 19 18 18 18 19 19 19 19 19 19 19 19 19 19 19 19 20 19 19 19 19 19 20 20 20 20
27 26 26 26 26 25 25 24 23 23 23 22 21 20 21 22 21 21 20 20 19 19 20 19 18 18 19 19 19 19 18 18 19 19 19 19 20 19 19 19 20 21 21 21
26 26 25 24 24 24 25 25 25 25 24 23 22 21 22 22 21 21 21 19 19 19 19 19 19 19 19 19 20 20 20 20 20 20 20 20 20 20 20 20 21 21 21 21
25 25 25 24 24 24 23 23 24 24 24 23 22 22 22 22 22 21 20 20 21 20 19 20 20 20 20 21 21 21 21 21 20 20 20 20 20 21 21 21 21 21 21 21
24 24 23 23 23 24 24 23 23 23 23 23 22 22 22 22 23 23 22 22 21 20 20 20 20 20 21 21 22 22 22 21 21 20 21 21 21 21 21 20 21 21 21 21
23 23 22 22 23 24 24 23 24 23 23 23 23 22 21 21 21 21 21 21 20 20 20 20 20 21 21 21 21 21 21 21 22 22 21 20 20 21 21 21 21 20 21 22
Wind_Direction
242 241 240 242 246 246 250 254 254 247 247 253 255 258 262 264 262 264 270 278 281 285 285 287 290 293 292 293 294 293 294 295 291 290 289 289 286 282 282 283 282 282 284 289
243 239 237 239 244 246 249 257 257 249 250 255 256 257 259 261 266 264 266 278 277 273 274 282 287 289 290 291 290 290 292 294 290 287 286 286 284 281 283 286 284 284 286 289
245 240 236 238 241 243 248 256 259 258 252 256 257 254 255 261 263 267 269 274 273 272 276 280 283 286 288 288 288 287 288 289 287 284 282 282 284 284 285 289 286 284 287 289
241 237 235 237 240 245 250 254 258 257 255 257 260 261 253 257 262 265 269 272 271 274 282 285 284 284 285 288 286 286 285 284 285 283 281 280 283 285 285 288 286 284 284 286
232 234 236 237 238 242 247 251 253 254 254 256 258 261 253 252 259 262 266 270 270 274 285 287 285 283 286 288 287 288 287 284 283 281 279 283 283 282 281 283 285 284 283 285
237 238 240 239 239 243 245 244 246 249 251 250 250 254 250 250 257 263 267 269 273 279 285 286 288 287 286 289 288 288 288 285 279 278 278 281 281 280 281 281 284 284 284 286
238 240 239 237 237 242 240 241 247 249 250 250 250 251 255 256 260 264 265 266 273 279 281 286 288 289 288 287 287 287 285 283 281 278 276 278 279 279 281 282 283 284 285 287
238 233 235 238 243 242 237 244 248 252 253 255 253 254 253 258 261 262 265 269 273 277 282 287 289 290 288 285 283 283 283 280 279 278 276 277 276 276 277 279 282 285 286 286
242 237 238 240 244 245 243 245 246 252 255 259 258 257 253 256 261 265 266 268 271 275 281 284 288 287 285 283 282 282 284 277 275 275 276 278 275 272 273 277 280 282 283 284
245 242 236 238 243 245 244 244 245 249 256 260 260 259 258 261 263 264 263 265 271 273 277 284 287 287 284 281 281 281 281 278 278 276 277 277 275 273 272 275 278 280 281 283
243 243 240 241 241 240 241 243 248 253 257 263 263 261 266 265 263 261 260 265 267 269 272 276 283 285 281 279 279 280 280 279 277 276 276 275 272 273 275 278 279 279 280 283
243 244 242 242 242 243 245 249 252 255 261 263 264 265 265 264 262 261 265 267 270 271 271 272 273 276 277 277 278 277 280 282 279 278 275 273 271 271 275 279 280 281 283 283
244 245 246 242 239 243 247 252 255 259 263 265 265 266 266 266 263 263 267 271 275 274 272 274 274 275 275 275 276 275 277 280 281 278 274 272 272 273 277 280 281 283 285 285
245 247 247 245 244 245 245 251 255 257 262 266 266 266 265 265 265 264 267 270 271 271 272 275 277 275 272 273 279 280 280 277 277 274 272 273 274 275 277 281 282 283 285 286
243 245 247 249 250 250 249 251 254 257 260 264 267 268 265 264 264 264 265 267 267 269 271 274 275 269 269 272 277 281 278 276 276 273 271 273 274 277 280 282 283 284 285 286
242 244 245 248 251 251 251 251 252 256 261 264 265 266 265 261 262 266 267 266 264 264 267 270 271 269 267 271 273 277 275 276 275 272 270 274 277 281 283 283 283 282 284 285
243 244 246 247 248 250 250 250 254 257 258 262 262 261 261 258 263 264 265 265 262 267 263 268 269 269 266 266 267 269 271 272 273 272 272 273 276 279 282 286 284 283 284 285
248 247 247 246 247 248 252 254 255 257 258 259 258 258 260 260 264 264 267 269 269 267 264 269 270 268 265 263 262 268 266 268 268 270 273 275 275 277 280 284 285 285 286 286
247 248 246 247 249 251 253 255 255 257 259 257 258 261 261 262 265 264 269 270 271 271 266 265 267 267 264 264 265 267 265 269 268 270 273 273 275 279 283 285 286 287 288 289
246 246 245 246 249 250 252 250 250 255 257 258 262 263 262 263 264 264 263 267 271 271 266 265 268 268 266 265 268 268 267 270 271 271 272 272 275 278 281 283 285 286 288 291
244 244 245 247 248 250 249 247 248 251 256 261 263 263 263 261 263 265 266 268 268 271 268 267 267 266 268 269 270 269 268 270 271 273 273 272 273 276 279 281 283 285 287 289
244 245 245 245 247 246 247 249 248 251 255 259 263 264 264 264 263 265 267 269 270 270 271 267 266 267 268 269 270 270 270 270 272 273 273 271 273 277 280 283 285 285 286 288
242 244 248 247 248 249 247 249 251 253 256 260 262 262 264 265 267 269 268 268 271 273 271 266 265 267 267 268 269 270 271 272 273 271 273 275 277 278 281 284 285 285 285 285
244 246 246 247 248 247 246 249 250 252 255 256 258 260 262 265 269 270 268 267 270 272 270 267 266 267 268 269 270 270 270 272 271 271 274 276 277 280 283 285 285 284 283 284
243 243 244 248 248 249 249 252 253 253 255 258 259 260 263 265 267 266 269 269 269 269 269 267 266 267 269 271 271 269 270 270 271 275 277 277 278 280 281 282 285 285 284 284
244 244 247 249 249 251 252 253 253 254 256 258 259 261 261 262 264 266 267 268 267 268 267 268 268 269 272 272 270 270 268 267 269 273 275 275 279 281 282 282 284 284 284 285
Height
5843 5844 5845 5847 5848 5849 5849 5849 5850 5852 5852 5852 5852 5853 5853 5854 5855 5855 5855 5854 5854 5854 5853 5852 5852 5852 5852 5852 5851 5851 5850 5848 5847 5846 5845 5844 5844 5844 5843 5842 5842 5841 5840 5839
5838 5839 5842 5842 5843 5844 5844 5845 5846 5847 5848 5848 5848 5849 5849 5850 5850 5851 5851 5850 5850 5850 5849 5848 5849 5849 5849 5848 5848 5847 5846 5845 5844 5842 5842 5841 5840 5839 5839 5839 5838 5837 5836 5835
5833 5837 5836 5837 5838 5839 5840 5841 5842 5843 5843 5843 5843 5844 5846 5846 5846 5846 5847 5846 5847 5846 5846 5846 5846 5846 5845 5844 5844 5843 5842 5841 5840 5839 5839 5838 5837 5836 5836 5835 5834 5833 5832 5831
5829 5831 5832 5832 5833 5835 5836 5837 5838 5838 5838 5839 5840 5839 5842 5841 5842 5842 5843 5843 5844 5844 5843 5843 5842 5841 5841 5840 5840 5839 5838 5837 5836 5835 5835 5834 5834 5832 5832 5832 5830 5829 5828 5827
5825 5827 5827 5828 5830 5830 5832 5833 5834 5834 5834 5835 5835 5835 5837 5838 5838 5838 5839 5839 5840 5840 5839 5838 5838 5837 5836 5836 5836 5835 5834 5833 5832 5831 5831 5830 5829 5829 5828 5828 5827 5826 5824 5823
5820 5822 5822 5824 5825 5826 5827 5828 5829 5829 5829 5830 5831 5831 5833 5834 5834 5834 5835 5835 5836 5836 5835 5834 5833 5832 5832 5832 5832 5831 5830 5829 5828 5828 5827 5826 5826 5825 5824 5823 5823 5822 5820 5819
5816 5818 5819 5820 5820 5822 5822 5823 5823 5824 5824 5826 5827 5827 5829 5830 5830 5830 5831 5831 5832 5832 5832 5831 5830 5829 5828 5828 5828 5827 5826 5825 5824 5823 5823 5822 5822 5821 5820 5819 5819 5817 5816 5815
5811 5814 5815 5816 5816 5816 5817 5818 5819 5820 5820 5822 5822 5822 5825 5826 5825 5825 5826 5827 5827 5827 5827 5826 5826 5825 5824 5824 5823 5822 5821 5821 5820 5819 5818 5818 5817 5817 5816 5815 5814 5813 5812 5811
5807 5810 5812 5812 5812 5813 5813 5813 5815 5816 5816 5817 5818 5819 5820 5819 5820 5820 5821 5822 5822 5822 5822 5821 5820 5820 5820 5819 5818 5817 5817 5816 5815 5814 5813 5813 5813 5812 5811 5811 5810 5809 5808 5807
5803 5804 5806 5808 5808 5808 5809 5810 5811 5811 5811 5811 5813 5814 5815 5815 5815 5816 5816 5817 5817 5817 5817 5816 5816 5816 5815 5814 5813 5813 5812 5811 5810 5809 5809 5809 5808 5807 5807 5807 5806 5805 5804 5803
5797 5799 5801 5802 5803 5803 5805 5806 5805 5806 5807 5807 5807 5811 5810 5811 5811 5811 5811 5811 5811 5811 5811 5811 5811 5811 5810 5809 5809 5808 5807 5807 5806 5804 5804 5804 5803 5803 5803 5802 5801 5800 5799 5798
5792 5793 5794 5797 5799 5799 5800 5801 5802 5802 5802 5802 5802 5806 5804 5805 5805 5805 5806 5806 5806 5806 5806 5806 5806 5805 5805 5804 5804 5804 5803 5802 5801 5800 5799 5799 5798 5798 5798 5797 5796 5795 5794 5793
5786 5787 5789 5792 5795 5795 5795 5796 5796 5796 5796 5796 5797 5800 5799 5800 5799 5800 5800 5800 5800 5800 5800 5800 5799 5799 5799 5799 5799 5798 5798 5798 5797 5796 5795 5795 5794 5794 5793 5792 5791 5790 5789 5788
5780 5781 5784 5786 5787 5788 5789 5790 5790 5790 5790 5791 5791 5792 5793 5794 5794 5794 5794 5794 5794 5794 5795 5795 5794 5794 5794 5794 5794 5793 5793 5793 5792 5791 5791 5790 5790 5789 5789 5788 5787 5786 5784 5783
5773 5775 5776 5778 5780 5781 5782 5783 5784 5785 5785 5785 5786 5786 5787 5788 5788 5788 5788 5789 5789 5789 5789 5789 5789 5788 5788 5789 5789 5788 5788 5788 5787 5787 5786 5786 5785 5784 5784 5783 5782 5780 5779 5778
5766 5768 5770 5771 5773 5774 5775 5777 5778 5779 5779 5779 5779 5780 5781 5782 5782 5782 5782 5783 5783 5784 5784 5784 5783 5783 5783 5784 5784 5784 5783 5783 5782 5782 5781 5781 5780 5779 5778 5777 5776 5775 5774 5773
5758 5760 5762 5764 5766 5767 5768 5770 5771 5772 5773 5774 5774 5775 5775 5776 5776 5777 5777 5777 5777 5777 5778 5778 5778 5777 5777 5777 5777 5778 5778 5778 5777 5777 5776 5775 5774 5774 5773 5772 5771 5769 5768 5767
5751 5753 5755 5756 5759 5759 5763 5764 5764 5766 5767 5767 5768 5768 5768 5770 5771 5771 5771 5772 5772 5771 5772 5772 5771 5771 5772 5772 5772 5772 5772 5772 5772 5771 5771 5770 5769 5768 5767 5766 5765 5763 5762 5761
5743 5745 5747 5749 5750 5751 5755 5757 5758 5759 5760 5761 5762 5762 5762 5764 5765 5765 5766 5766 5766 5766 5766 5766 5766 5766 5766 5766 5766 5766 5767 5766 5766 5765 5764 5764 5764 5763 5762 5760 5759 5757 5756 5755
5736 5738 5740 5741 5743 5745 5749 5750 5751 5753 5754 5755 5756 5756 5757 5758 5759 5761 5760 5760 5760 5760 5760 5760 5760 5760 5760 5760 5760 5760 5760 5760 5760 5759 5759 5758 5757 5757 5756 5755 5753 5751 5750 5748
5729 5730 5732 5734 5736 5738 5741 5743 5745 5747 5749 5749 5750 5750 5751 5752 5754 5754 5754 5754 5753 5753 5753 5753 5753 5754 5754 5753 5753 5752 5753 5754 5753 5753 5752 5752 5751 5750 5749 5748 5747 5745 5744 5742
5721 5723 5725 5727 5729 5734 5734 5735 5738 5740 5741 5743 5743 5744 5745 5746 5746 5746 5747 5747 5747 5747 5747 5746 5747 5747 5747 5747 5747 5747 5746 5747 5747 5746 5745 5745 5744 5743 5742 5741 5740 5739 5737 5736
5714 5717 5718 5721 5724 5725 5727 5729 5730 5732 5734 5735 5737 5738 5738 5739 5739 5740 5740 5740 5740 5740 5740 5740 5741 5741 5741 5741 5741 5741 5741 5741 5740 5740 5739 5738 5738 5737 5735 5734 5733 5732 5730 5729
5708 5710 5712 5714 5716 5718 5720 5722 5723 5725 5727 5728 5729 5730 5731 5732 5733 5733 5733 5733 5733 5734 5733 5734 5734 5735 5735 5735 5735 5735 5735 5734 5734 5733 5732 5732 5731 5730 5729 5728 5726 5725 5723 5722
5701 5703 5705 5708 5710 5712 5714 5715 5717 5718 5719 5721 5722 5723 5723 5724 5725 5725 5726 5726 5726 5727 5727 5727 5728 5728 5728 5728 5728 5728 5728 5728 5727 5727 5726 5726 5725 5723 5722 5721 5719 5718 5716 5715
5694 5697 5699 5702 5704 5705 5707 5709 5710 5711 5712 5713 5715 5716 5716 5717 5717 5718 5718 5719 5719 5720 5720 5721 5721 5721 5721 5721 5721 5720 5720 5721 5721 5721 5720 5719 5718 5717 5715 5714 5712 5710 5709 5708